Location: Ljubljana
(46.0550°N, 14.5140°E)
Time: 17:02:55
(UTC+02:00)

N. Korean satellite - Visible Passes

Search period start: 23 October 2017 00:00
Search period end: 01 November 2017 23:00
Orbit: 459 x 517 km, 97.2° (Epoch: 22 October)

Date Brightness Start Highest point End Pass type
(mag) Time Alt. Az. Time Alt. Az. Time Alt. Az.
23 Oct 6.5 18:45:29 10° SSE 18:48:55 58° ENE 18:52:20 10° N visible
24 Oct 9.5 19:56:47 10° SW 19:59:15 18° W 20:01:41 10° NW visible
25 Oct 8.3 19:32:34 10° SSW 19:35:45 33° W 19:38:56 10° NNW visible
26 Oct 9.9 06:57:55 10° NE 07:00:04 15° E 07:02:14 10° SE visible
26 Oct 6.8 19:08:53 10° S 19:12:20 68° W 19:15:47 10° NNW visible
27 Oct 6.5 18:45:34 10° SSE 18:48:59 58° ENE 18:52:23 10° N visible
28 Oct 7.3 18:22:39 10° SE 18:25:42 30° ENE 18:28:45 10° N visible
28 Oct 9.5 19:56:53 10° SW 19:59:18 18° W 20:01:43 10° NW visible
29 Oct 8.3 18:32:38 10° SSW 18:35:47 33° W 18:38:57 10° NNW visible
30 Oct 9.9 05:57:53 10° NE 06:00:07 16° E 06:02:22 10° SE visible
30 Oct 6.8 18:08:55 10° S 18:12:21 67° W 18:15:48 10° NNW visible
31 Oct 6.4 17:45:35 10° SSE 17:48:59 59° ENE 17:52:24 10° N visible
01 Nov 7.3 17:22:39 10° SE 17:25:41 30° ENE 17:28:45 10° N visible
01 Nov 9.5 18:56:55 10° SW 18:59:18 17° W 19:01:41 10° NW visible
